Location: Napier
(39.4830°S, 176.9170°E)
Time: 03:53:36
(UTC+13:00)

NOAA 11 - Pass Details

Date: 24 January 2019
Orbit: 832 x 850 km, 98.5° (Epoch: 21 February)

Event Time Altitude Azimuth Distance (km) Brightness Sun altitude
Rises 21:29:32 0° 165° (SSE) 3,448 7.7 -9.7°
Reaches altitude 10° 21:31:57 10° 162° (SSE) 2,507 6.9 -10.1°
Maximum altitude 21:37:31 69° 78° (ENE) 919 4.2 -11.0°
Drops below altitude 10° 21:43:00 10° 355° (N) 2,478 6.3 -11.8°
Sets 21:45:22 0° 352° (N) 3,405 7.1 -12.2°
